Location: *
(43.0167°S, 179.9000°E)
Time: 12:17:05
(UTC+00:00)

Spot 4 Rocket - Pass Details

Date: 12 August 2024
Orbit: 772 x 776 km, 98.9° (Epoch: 12 September)

Event Time Altitude Azimuth Distance (km) Brightness Sun altitude
Rises 17:31:26 0° 4° (N) 3,246 7.4 -16.1°
Reaches altitude 10° 17:33:46 10° 359° (N) 2,326 6.6 -15.7°
Maximum altitude 17:38:48 55° 281° (W) 936 4.1 -14.7°
Drops below altitude 10° 17:43:54 10° 203° (SSW) 2,354 6.2 -13.8°
Sets 17:46:18 0° 198° (SSW) 3,288 7.0 -13.4°
